Hourly Data Report for March 22, 2012

BAGOTVILLE A
QUEBEC

48°20'00.000" N
71°00'00.000" W
159.10 m
7060400
71727
YBG

Download Data

Hourly Data (March 2012)
Hourly Data Report for March 22, 2012
TIME
LST
Temp Definition
°C
Dew Point Definition
°C
Rel Hum Definition
%
Precip. Amount Definition
mm

Wind Dir Definition
10's deg

Wind Spd Definition
km/h
Visibility Definition
km
Stn Press Definition
kPa
Hmdx Definition


Wind Chill Definition


Weather Definition


00:00 10.8 7.0 77   11 9 24.1 99.61     Clear
01:00 10.1 7.1 82   9 11 24.1 99.59     Clear
02:00 10.1 7.7 85   9 11 24.1 99.52     Mainly Clear
03:00 9.9 7.0 82   8 9 24.1 99.49     Mainly Clear
04:00 9.2 6.5 83   1 6 24.1 99.55     Mostly Cloudy
05:00 12.1 8.5 79   27 15 24.1 99.60     Mostly Cloudy
06:00 14.4 9.3 71   27 22 40.2 99.53     Cloudy
07:00 15.4 9.6 68   28 24 40.2 99.58     Mostly Cloudy
08:00 15.2 9.8 70   27 20 40.2 99.60     Cloudy
09:00 16.1 10.6 70   29 17 40.2 99.66     Mostly Cloudy
10:00 14.7 10.6 76   30 26 40.2 99.74     Rain Showers
11:00 14.1 9.7 75   29 22 40.2 99.80     Rain Showers
12:00 13.5 8.0 69   28 19 40.2 99.74     Cloudy
13:00 14.9 7.4 61   30 19 40.2 99.68     Mostly Cloudy
14:00 16.4 4.2 44   29 37 40.2 99.67     Mostly Cloudy
15:00 16.0 4.9 48   30 30 40.2 99.70     Mostly Cloudy
16:00 14.4 -0.5 36   30 24 40.2 99.71     Mostly Cloudy
17:00 13.8 -1.2 35   30 28 40.2 99.76     Mainly Clear
18:00 11.7 -1.4 40   30 22 40.2 99.78     Mainly Clear
19:00 10.0 -2.5 41   30 20 24.1 99.81     Mainly Clear
20:00 8.9 -3.5 41   28 20 24.1 99.88     Mainly Clear
21:00 7.5 -3.7 45   27 17 24.1 99.93     Clear
22:00 6.3 -4.5 46   28 17 24.1 99.96     Clear
23:00 4.9 -4.2 52   28 22 24.1 99.95     Clear

Notes on Data Quality.

Legend

  • E = Estimated
  • M = Missing
  • NA = Not Available*
  • [empty] = Indicates an unobserved value
Date modified: